San Antonio, TX

10:03 PM CST on December 04, 2016 (GMT -0600)
San Antonio International

Weather History for KSAT - October, 2014

Change the Weather History Date:

Saturday, October 18, 2014

  Actual Average Record
Temperature  
Mean Temperature 79 °F 71 °F  
Max Temperature 89 °F 82 °F 93 °F (1895)
Min Temperature 69 °F 60 °F 45 °F (1975)
Degree Days  
Heating Degree Days 0 1  
Month to date heating degree days 0 7  
Since 1 July heating degree days 0 9  
Cooling Degree Days 14 7  
Month to date cooling degree days 230 151  
Year to date cooling degree days 3346 2985  
Growing Degree Days 29 (Base 50)    
Moisture  
Dew Point 66 °F    
Average Humidity 65    
Maximum Humidity 90    
Minimum Humidity 40    
Precipitation  
Precipitation 0.00 in 0.15 in 3.16 in (1998)
Month to date precipitation 0.62 2.44  
Year to date precipitation 18.46 26.41  
Snow  
Snow 0.00 in - - ()
Month to date snowfall 0.0  
Since 1 July snowfall 0.0  
Since 1 September snowfall 0.0  
Snow Depth 0.00 in    
Sea Level Pressure  
Sea Level Pressure 29.96 in    
Wind  
Wind Speed 6 mph (East)    
Max Wind Speed 14 mph    
Max Gust Speed 18 mph    
Visibility 10 miles    
Events      
T = Trace of Precipitation, MM = Missing Value Source: NWS Daily Summary

Daily Weather History Graph

Daily Weather History Graph

Search for Another Location

Airport or City:

Trip Planner

Search our weather history database for the weather conditions in past years. The results will help you decide how hot, cold, wet, or windy it might be!

Date:

Astronomy

Oct. 18, 2014 Rise Set
Actual Time 7:37 AM CDT 7:00 PM CDT
Civil Twilight 7:13 AM CDT 7:24 PM CDT
Nautical Twilight 6:45 AM CDT 7:52 PM CDT
Astronomical Twilight 6:17 AM CDT 8:19 PM CDT
Moon 2:58 AM CDT (10/18) 4:01 PM CDT (10/18)
Length of Visible Light 12h 11m
Length of Day
11h 22m
Waning Crescent, 24% of the Moon is Illuminated
Oct 18
Waning Crescent
Oct 23
New
Oct 30
First Quarter
Nov 6
Full
Nov 14
Last Quarter

Hourly Weather History & Observations

Time (CDT) Temp. Heat Index Dew Point Humidity Pressure Visibility Wind Dir Wind Speed Gust Speed Precip Events Conditions
12:43 AM 71.1 °F - 64.9 °F 81% 29.97 in 10.0 mi SE 5.8 mph - N/A   Mostly Cloudy
12:51 AM 72.0 °F - 66.0 °F 81% 29.92 in 10.0 mi SE 5.8 mph - N/A   Mostly Cloudy
1:17 AM 72.0 °F - 66.0 °F 81% 29.97 in 10.0 mi SE 3.5 mph - N/A   Mostly Cloudy
1:51 AM 73.0 °F - 66.9 °F 81% 29.91 in 10.0 mi SE 4.6 mph - N/A   Mostly Cloudy
2:51 AM 73.0 °F - 66.9 °F 81% 29.91 in 10.0 mi ESE 3.5 mph - N/A   Mostly Cloudy
3:51 AM 72.0 °F - 68.0 °F 87% 29.90 in 10.0 mi East 3.5 mph - N/A   Mostly Cloudy
4:51 AM 71.1 °F - 66.9 °F 87% 29.90 in 10.0 mi East 3.5 mph - N/A   Mostly Cloudy
5:14 AM 72.0 °F - 68.0 °F 87% 29.96 in 10.0 mi Calm Calm - N/A   Mostly Cloudy
5:51 AM 71.1 °F - 68.0 °F 90% 29.92 in 10.0 mi Calm Calm - N/A   Mostly Cloudy
6:51 AM 71.1 °F - 68.0 °F 90% 29.94 in 10.0 mi Variable 3.5 mph - N/A   Mostly Cloudy
7:15 AM 71.1 °F - 68.0 °F 90% 29.99 in 10.0 mi Calm Calm - N/A   Mostly Cloudy
7:33 AM 71.1 °F - 68.0 °F 90% 29.99 in 10.0 mi North 3.5 mph - N/A   Mostly Cloudy
7:51 AM 71.1 °F - 68.0 °F 90% 29.95 in 10.0 mi Calm Calm - N/A   Mostly Cloudy
8:51 AM 73.0 °F - 69.1 °F 87% 29.97 in 10.0 mi NE 4.6 mph - N/A   Mostly Cloudy
9:03 AM 75.0 °F - 69.1 °F 82% 30.02 in 10.0 mi NE 3.5 mph - N/A   Scattered Clouds
9:32 AM 75.0 °F - 70.0 °F 84% 30.03 in 10.0 mi ENE 3.5 mph - N/A   Mostly Cloudy
9:51 AM 78.1 °F - 70.0 °F 76% 29.99 in 10.0 mi ENE 5.8 mph - N/A   Mostly Cloudy
10:51 AM 77.0 °F - 69.1 °F 76% 30.00 in 10.0 mi NE 3.5 mph - N/A   Mostly Cloudy
11:51 AM 82.0 °F 84.5 °F 66.9 °F 60% 29.99 in 10.0 mi Variable 6.9 mph - N/A   Mostly Cloudy
12:51 PM 82.9 °F 84.6 °F 64.9 °F 54% 29.97 in 10.0 mi East 8.1 mph - N/A   Mostly Cloudy
1:51 PM 86.0 °F 87.3 °F 64.0 °F 48% 29.95 in 10.0 mi ENE 8.1 mph - N/A   Mostly Cloudy
2:51 PM 86.0 °F 86.8 °F 63.0 °F 46% 29.94 in 10.0 mi East 10.4 mph - N/A   Mostly Cloudy
3:51 PM 87.1 °F 87.5 °F 62.1 °F 43% 29.92 in 10.0 mi NE 8.1 mph - N/A   Scattered Clouds
4:51 PM 88.0 °F 87.9 °F 61.0 °F 40% 29.91 in 10.0 mi ENE 5.8 mph - N/A   Partly Cloudy
5:51 PM 86.0 °F 86.1 °F 61.0 °F 43% 29.91 in 10.0 mi East 12.7 mph - N/A   Partly Cloudy
6:51 PM 82.9 °F 83.3 °F 61.0 °F 47% 29.92 in 10.0 mi East 6.9 mph - N/A   Partly Cloudy
7:51 PM 80.1 °F 81.2 °F 62.1 °F 54% 29.94 in 10.0 mi East 6.9 mph - N/A   Partly Cloudy
8:51 PM 80.1 °F 81.5 °F 63.0 °F 56% 29.97 in 10.0 mi ENE 9.2 mph - N/A   Partly Cloudy
9:51 PM 78.1 °F - 63.0 °F 60% 29.99 in 10.0 mi ENE 8.1 mph - N/A   Partly Cloudy
10:51 PM 75.0 °F - 62.1 °F 64% 30.01 in 10.0 mi East 8.1 mph - N/A   Partly Cloudy
11:44 PM 73.9 °F - 63.0 °F 68% 30.07 in 10.0 mi East 5.8 mph - N/A   Mostly Cloudy
11:51 PM 75.0 °F - 63.0 °F 66% 30.01 in 10.0 mi East 5.8 mph - N/A   Mostly Cloudy